User: anonymous   Login
Location: Caltech
(34.1382°N, 118.1253°W)
Time: 20:37:38
(UTC-07:00)
Language:

Cosmos 1125 Rocket - Orbit

View from above orbital plane
View from above orbital plane
View from above satellite
View from above satellite

Ground track
Ground track

The orbit data is extracted from the following two-line orbital elements,

1 11511U 79078B   16270.47728743  .00000060  00000-0  29087-4 0  9994
2 11511  74.0352  79.9839 0015220  25.2362 334.9531 14.36732806940749
Epoch (UTC): 26 September 2016 11:27:17
Eccentricity: 0.0015220
inclination: 74.0352°
perigee height: 758 km
apogee height: 780 km
right ascension of ascending node: 79.9839°
argument of perigee: 25.2362°
revolutions per day: 14.36732806
mean anomaly at epoch: 334.9531°
orbit number at epoch: 94074

The dashed part of the orbit path shows where the satellite is in the earth's shadow,  

DLR